TimeCDT,TemperatureF,Dew PointF,Humidity,Sea Level PressureIn,VisibilityMPH,Wind Direction,Wind SpeedMPH,Gust SpeedMPH,PrecipitationIn,Events,Conditions,WindDirDegrees,DateUTC
12:53 AM,73.0,53.1,49,30.04,10.0,SE,10.4,-,N/A,,Clear,140,2012-09-24 05:53:00
1:53 AM,72.0,53.1,51,30.03,10.0,SSE,12.7,-,N/A,,Clear,150,2012-09-24 06:53:00
2:53 AM,71.1,54.0,55,30.02,10.0,SSE,13.8,-,N/A,,Clear,150,2012-09-24 07:53:00
3:53 AM,70.0,55.9,61,30.01,10.0,SSE,12.7,-,N/A,,Clear,160,2012-09-24 08:53:00
4:53 AM,69.1,55.9,63,30.00,10.0,SSE,12.7,-,N/A,,Clear,150,2012-09-24 09:53:00
5:53 AM,66.9,55.9,68,30.00,10.0,SSE,10.4,-,N/A,,Clear,160,2012-09-24 10:53:00
6:53 AM,66.9,55.0,66,30.01,10.0,South,11.5,-,N/A,,Clear,180,2012-09-24 11:53:00
7:53 AM,66.0,55.0,68,30.03,10.0,South,9.2,-,N/A,,Clear,180,2012-09-24 12:53:00
8:53 AM,69.1,55.0,61,30.03,10.0,SSE,10.4,-,N/A,,Clear,160,2012-09-24 13:53:00
9:53 AM,75.0,55.9,51,30.02,10.0,South,16.1,21.9,N/A,,Clear,170,2012-09-24 14:53:00
10:53 AM,82.0,53.1,37,30.01,10.0,SSE,11.5,-,N/A,,Clear,160,2012-09-24 15:53:00
11:53 AM,86.0,50.0,29,29.99,10.0,South,10.4,-,N/A,,Clear,180,2012-09-24 16:53:00
12:53 PM,88.0,43.0,21,29.96,10.0,SW,3.5,-,N/A,,Mostly Cloudy,230,2012-09-24 17:53:00
1:53 PM,89.1,43.0,20,29.94,10.0,Variable,6.9,-,N/A,,Clear,0,2012-09-24 18:53:00
2:53 PM,90.0,39.0,17,29.89,10.0,SE,9.2,18.4,N/A,,Clear,140,2012-09-24 19:53:00
3:53 PM,90.0,41.0,18,29.86,10.0,South,4.6,17.3,N/A,,Clear,190,2012-09-24 20:53:00
4:53 PM,91.0,39.9,17,29.84,10.0,SSW,13.8,-,N/A,,Clear,200,2012-09-24 21:53:00
5:53 PM,90.0,39.0,17,29.84,10.0,SSW,6.9,17.3,N/A,,Clear,200,2012-09-24 22:53:00
6:53 PM,88.0,39.9,18,29.83,10.0,South,11.5,-,N/A,,Clear,180,2012-09-24 23:53:00
7:53 PM,84.9,44.1,24,29.85,10.0,SSE,12.7,-,N/A,,Clear,150,2012-09-25 00:53:00
8:53 PM,81.0,48.0,31,29.86,10.0,SSE,11.5,18.4,N/A,,Clear,150,2012-09-25 01:53:00
9:53 PM,80.1,51.1,36,29.86,10.0,SSE,17.3,24.2,N/A,,Clear,150,2012-09-25 02:53:00
10:53 PM,78.1,52.0,40,29.86,10.0,SSE,18.4,24.2,N/A,,Clear,150,2012-09-25 03:53:00
11:53 PM,75.9,53.1,45,29.86,10.0,SSE,16.1,24.2,N/A,,Clear,150,2012-09-25 04:53:00